Hourly Data Report for October 13, 2014

All times are specified in Local Standard Time (LST). Add 1 hour to adjust for Daylight Saving Time where and when it is observed.

FREDERICTON
NEW BRUNSWICK

45°52'08.000" N
66°32'14.000" W
20.70 m
8101505
71700
YFC

Download Data

Hourly Data (October 2014)
Hourly Data Report for October 13, 2014
Temp Definition
°C
Dew Point Temp Definition
°C
Rel Hum Definition
%
Wind Dir Definition
10's deg

Wind Spd Definition
km/h
Visibility Definition
km
Stn Press Definition
kPa
Hmdx Definition


Wind Chill Definition


Weather Definition


TIME
00:00 Legend Double Dagger 0.4 0.0 97 19 8 16.1 102.17     LegendNANA
01:00 Legend Double Dagger 0.4 0.3 99 20 5 16.1 102.17     LegendNANA
02:00 Legend Double Dagger 0.1 0.0 99 21 8 16.1 102.21     LegendNANA
03:00 Legend Double Dagger -0.6 -1.0 97   0 16.1 102.18     LegendNANA
04:00 Legend Double Dagger -0.6 -0.6 100 19 8 16.1 102.25   -3 LegendNANA
05:00 Legend Double Dagger -0.4 -0.4 100 22 5 16.1 102.30   -2 LegendNANA
06:00 Legend Double Dagger -0.6 -0.6 100 21 5 16.1 102.30   -2 LegendNANA
07:00 Legend Double Dagger -0.5 -0.5 100 21 9 16.1 102.33   -4 LegendNANA
08:00 Legend Double Dagger 1.6 1.2 97 21 5 16.1 102.36     LegendNANA
09:00 Legend Double Dagger 5.1 2.5 83 19 5 16.1 102.37     LegendNANA
10:00 Legend Double Dagger 8.6 3.5 70 LegendMM 4 16.1 102.38     LegendNANA
11:00 Legend Double Dagger 14.5 2.0 42 25 18 16.1 102.30     LegendNANA
12:00 Legend Double Dagger 15.7 1.7 39 22 18 16.1 102.23     LegendNANA
13:00 Legend Double Dagger 16.9 1.6 35 22 17 16.1 102.13     LegendNANA
14:00 Legend Double Dagger 17.5 0.3 31 25 17 16.1 102.08     LegendNANA
15:00 Legend Double Dagger 18.1 1.1 32 21 21 16.1 102.07     LegendNANA
16:00 Legend Double Dagger 17.7 1.5 33 20 21 16.1 102.05     LegendNANA
17:00 Legend Double Dagger 16.4 4.8 46 21 11 16.1 102.00     LegendNANA
18:00 Legend Double Dagger 12.3 6.3 66 18 8 16.1 102.00     LegendNANA
19:00 Legend Double Dagger 9.8 6.0 77 19 4 16.1 102.03     LegendNANA
20:00 Legend Double Dagger 9.3 7.3 87 20 9 16.1 102.07     LegendNANA
21:00 Legend Double Dagger 8.2 7.0 92 19 9 16.1 102.06     LegendNANA
22:00 Legend Double Dagger 7.7 6.5 92 19 15 16.1 102.04     LegendNANA
23:00 Legend Double Dagger 6.9 6.0 94 18 13 16.1 102.04     LegendNANA

Notes on Data Quality.

Legend

  • E = Estimated
  • M = Missing
  • NA = Not Available
  • ‡ = Partner data that is not subject to review by the National Climate Archives
Date modified: